Regional Weather Roundup
Issued by NWS Wilmington, NC

Home | Current Version | Previous Version | Text Only | Print | Product List | Glossary On
Versions: 1 2 3 4 5 6 7 8 9 10 11 12 13 14 15 16 17 18 19 20 21 22 23 24 25 26 27
000
ASUS42 KILM 231512
RWRILM
RWRILM
REGIONAL HOURLY WEATHER ROUNDUP
NATIONAL WEATHER SERVICE WILMINGTON NC
1000 AM EST MON JAN 23 2017

NOTE: "FAIR" INDICATES FEW OR NO CLOUDS BELOW 12,000 FEET WITH NO
SIGNIFICANT WEATHER AND/OR OBSTRUCTIONS TO VISIBILITY.

...............WFO WILMINGTON COUNTY WARNING AREA...............

......COASTAL NC AND SC COUNTIES......

CITY           SKY/WX    TMP DP  RH WIND       PRES   REMARKS
WILMINGTON     SUNNY     59  51  75 SW10      29.32F
N MYRTLE BEACH SUNNY     58  52  80 S8        29.31S
MYRTLE BEACH   SUNNY     61  52  72 SW14      29.32F

......INLAND NC AND SC COUNTIES.......

CITY           SKY/WX    TMP DP  RH WIND       PRES   REMARKS
LUMBERTON      MOSUNNY   59  51  75 SW8       29.29F
ELIZABETHTOWN  SUNNY     59  49  71 S8        29.31F
WHITEVILLE     SUNNY     59  49  69 S8        29.30F
FLORENCE       CLOUDY    56  50  80 SW9       29.30R
DARLINGTON     PTSUNNY   55  50  83 S8        29.31R
KINGSTREE      FAIR      55  46  71 SW8       29.31R
HARTSVILLE     CLOUDY    52  48  87 SW3       29.29R
BENNETTSVILLE  FAIR      55  52  88 S5        29.29S
CONWAY         FAIR      59  50  72 SW13      29.31S
GEORGETOWN     FAIR      57  48  72 W13       29.33R
MARION         FAIR      55  48  76 SW7       29.30S

....................REST OF NORTH CAROLINA......................

.........EASTERN NC.........

CITY           SKY/WX    TMP DP  RH WIND       PRES   REMARKS
CAPE HATTERAS  MOSUNNY   62  55  77 SW10      29.32S HAZE
JACKSONVILLE   SUNNY     60  50  69 SW9       29.32R
MOREHEAD CITY  CLOUDY    57  51  80 MISG      29.34R
KENANSVILLE    SUNNY     57  50  77 SW8       29.31R
NEW BERN       MOSUNNY   59  52  77 SW12      29.33R
ELIZABETH CITY CLOUDY    60  58  92 S8        29.27R

.........CENTRAL NC.........

CITY           SKY/WX    TMP DP  RH WIND       PRES   REMARKS
RALEIGH DURHAM PTSUNNY   53  49  86 W14       29.28R
ROCKY MOUNT    SUNNY     57  51  80 SW12G20   29.29R
ROANOKE RAPIDS NOT AVBL
FAYETTEVILLE   SUNNY     58  50  75 S13       29.30R
HOFFMAN        SUNNY     53  49  87 S9        29.29R

.........WESTERN NC.........

CITY           SKY/WX    TMP DP  RH WIND       PRES   REMARKS
CHARLOTTE      CLOUDY    50  47  89 S10       29.27R
GREENSBORO     CLOUDY    51  50  96 SW8       29.24R
HICKORY        NOT AVBL
BOONE          NOT AVBL
ASHEVILLE      NOT AVBL

.....................REST OF SOUTH CAROLINA.....................

.........EASTERN SC.........

CITY           SKY/WX    TMP DP  RH WIND       PRES   REMARKS
CHARLESTON     LGT RAIN  55  50  83 SW9G20    29.32R
BEAUFORT MCAS  LGT RAIN  53  51  93 SW10      29.32R FOG
HILTON HEAD    LGT RAIN  52  50  93 SW10      29.34

.........CENTRAL SC.........

CITY           SKY/WX    TMP DP  RH WIND       PRES   REMARKS
COLUMBIA       CLOUDY    53  49  86 SW6       29.28S
ORANGEBURG     LGT RAIN  51  50  96 SW6       29.30S
SUMTER SHAW    LGT RAIN  52  48  87 S6        29.28R FOG

.........WESTERN SC.........

CITY           SKY/WX    TMP DP  RH WIND       PRES   REMARKS
GREENVILLE     NOT AVBL
ROCK HILL      CLOUDY    50  47  89 S6        29.28R FOG
ANDERSON       CLOUDY    52  46  80 W8        29.27R
CLEMSON        NOT AVBL
GREENWOOD      CLOUDY    51  46  83 SW10      29.29R


...................COASTAL AND OFFSHORE REPORTS..................

................LOCAL PIERS AND NC RESERVE................


STATION/POSITION TIME  SKY/WX   TEMP    WIND        PRES    VSBY
                                AIR SEA DIR/SP/G
                 (UTC)          (F)     (DEG/KT/KT) (MB)    (MI)
JOHNY MRCER PIER 1436            59 56  230/  9/ 12  991.9S
NC RESRV MASNBRO 1345            56     250/  4      992.0
OCEAN CREST PIER NOT AVBL
SPRINGMAID  PIER NOT AVBL


................COASTAL AND OFFSHORE BUOYS................


STATION/POSITION TIME  SKY/WX   TEMP    WIND        PRES    VSBY
                                AIR SEA DIR/SP/G
                 (UTC)          (F)     (DEG/KT/KT) (MB)    (MI)
DIMNDSHOAL 41025 1450            68 76  230/ 23/ 27  992.8R
WVE H/P(F/S)=  7/14 SWL H/P/D(F/S/D)=  5/ 80/14

CAPE LOOKOUT     NOT AVBL
ONSLOW BAY 41036 NOT AVBL
ONSLOW BAY 41064 1408            61 69  260/ 17/ 23  993.5R
ONSLOW BAY 41159 1443               69                N/A
WVE H/P(F/S)=  9/ 7 SWL H/P/D(F/S/D)=  3/170/11

MASNBO INL 41110 1459               55                N/A
WVE H/P(F/S)=  5/10 SWL H/P/D(F/S/D)=  2/160/11

WILM HARBR 41108 1456               56                N/A
WVE H/P(F/S)=  7/10 SWL H/P/D(F/S/D)=  3/170/11

27SE WRITB 41037 1408            61 66  220/ 14/ 19  992.2R
FRYING PAN 41013 1450            65 69  210/ 10/ 14  992.8
WVE H/P(F/S)= 10/10 SWL H/P/D(F/S/D)= 10/170/10

SUNST NRSH 41024 1408            58 55  240/  4/  6  992.7S
CAPRS NRSH 41029 1408            57 56  240/ 14/ 17  992.4S
EDISTO     41004 1450            63 67  220/ 17/ 21  992.6
WVE H/P(F/S)=  8/10 SWL H/P/D(F/S/D)=  7/170/10



..........OFFSHORE BUOYS BEYOND 100 NM OFFSHORE...........
.....IN A TRIANGLE---HAT TO BERMUDA TO BAHAMAS TO HAT.....


STATION/POSITION TIME  SKY/WX   TEMP    WIND        PRES    VSBY
                                AIR SEA DIR/SP/G
                 (UTC)          (F)     (DEG/KT/KT) (MB)    (MI)
150E HAT   41001 NOT AVBL
W BERMUDA  41048 1450            71 70  180/ 21/ 27 1005.1
WVE H/P(F/S)=  9/ 8 SWL H/P/D(F/S/D)=  5/ 50/14

ATLANTIC S 41049 1450            73 74  170/ 14/ 16 1015.7
WVE H/P(F/S)=  6/14 SWL H/P/D(F/S/D)=  5/ 30/14

E BAHAMAS  41046 1450            77 78  170/ 19/ 23 1011.6F
WVE H/P(F/S)=  6/ 5 SWL H/P/D(F/S/D)=  3/13

NE BAHAMAS 41047 1450            75 75  190/ 23/ 33 1008.3F
WVE H/P(F/S)=  9/ 8 SWL H/P/D(F/S/D)=  3/ 30/14

120E CANVRL41010 NOT AVBL

END




USA.gov is the U.S. government's official web portal to all federal, state and local government web resources and services.